,,,PA_Meas_PMT16A,,PR_Meas_QMR101_102,,RH_Meas_QMH101,,SR_Meas_QMS101,,TA_Meas_QMH101,,GenWind,,GenWind,
date,time,status,PA,status,PR,status,RH,status,SR,status,TA,status,DirAvg,status,SpdAvg,
2008-04-26, 00:00:04,VALID,1005.33,VALID,0,VALID,87.8923,VALID,0,VALID,25.1851,VALID,331,VALID,0.0296875,
2008-04-26, 00:01:04,VALID,1005.33,VALID,0,VALID,87.9305,VALID,0,VALID,25.1461,VALID,340,VALID,0.280078,
2008-04-26, 00:02:04,VALID,1005.36,VALID,0,VALID,88.0678,VALID,0,VALID,25.1461,VALID,354,VALID,0.432813,
2008-04-26, 00:03:04,VALID,1005.34,VALID,0,VALID,88.1059,VALID,0,VALID,25.1286,VALID,1,VALID,0.672266,
2008-04-26, 00:04:04,VALID,1005.34,VALID,0,VALID,88.1593,VALID,0,VALID,25.1091,VALID,356,VALID,0.947266,
2008-04-26, 00:05:04,VALID,1005.33,VALID,0,VALID,88.3195,VALID,0,VALID,25.1286,VALID,351,VALID,1.07383,
2008-04-26, 00:06:04,VALID,1005.34,VALID,0,VALID,88.4645,VALID,0,VALID,25.0682,VALID,348,VALID,0.665234,
2008-04-26, 00:07:04,VALID,1005.34,VALID,0,VALID,88.5484,VALID,0,VALID,25.0488,VALID,354,VALID,0.381641,
2008-04-26, 00:08:04,VALID,1005.33,VALID,0,VALID,88.7239,VALID,0,VALID,25.0488,VALID,330,VALID,0.209375,
2008-04-26, 00:09:04,VALID,1005.31,VALID,0,VALID,88.6705,VALID,0,VALID,25.0293,VALID,292,VALID,0.573828,
2008-04-26, 00:10:04,VALID,1005.27,VALID,0,VALID,88.6323,VALID,0,VALID,25.0293,VALID,310,VALID,0.298438,
2008-04-26, 00:11:04,VALID,1005.27,VALID,0,VALID,88.6094,VALID,0,VALID,25.0098,VALID,274,VALID,0.695703,
2008-04-26, 00:12:04,VALID,1005.25,VALID,0,VALID,88.6934,VALID,0,VALID,25.0098,VALID,287,VALID,0.565625,
2008-04-26, 00:13:04,VALID,1005.25,VALID,0,VALID,88.5255,VALID,0,VALID,25.0488,VALID,313,VALID,0.857031,
2008-04-26, 00:14:04,VALID,1005.26,VALID,0,VALID,88.4721,VALID,0,VALID,25.0293,VALID,283,VALID,0.529688,
2008-04-26, 00:15:04,VALID,1005.23,VALID,0,VALID,88.3882,VALID,0,VALID,25.0682,VALID,293,VALID,1.00391,
2008-04-26, 00:16:04,VALID,1005.22,VALID,0,VALID,88.3577,VALID,0,VALID,25.0682,VALID,293,VALID,0.874609,
2008-04-26, 00:17:04,VALID,1005.23,VALID,0,VALID,88.2585,VALID,0,VALID,25.1072,VALID,303,VALID,0.812891,
2008-04-26, 00:18:04,VALID,1005.24,VALID,0,VALID,88.167,VALID,0,VALID,25.1267,VALID,327,VALID,0.330859,
2008-04-26, 00:19:04,VALID,1005.23,VALID,0,VALID,88.0754,VALID,0,VALID,25.1267,VALID,342,VALID,0.741797,
2008-04-26, 00:20:04,VALID,1005.22,VALID,0,VALID,88.1288,VALID,0,VALID,25.1267,VALID,348,VALID,0.605859,
2008-04-26, 00:21:04,VALID,1005.21,VALID,0,VALID,88.1517,VALID,0,VALID,25.1267,VALID,352,VALID,0.965234,
2008-04-26, 00:22:04,VALID,1005.19,VALID,0,VALID,88.2127,VALID,0,VALID,25.148,VALID,359,VALID,0.596094,
2008-04-26, 00:23:04,VALID,1005.2,VALID,0,VALID,88.1975,VALID,0,VALID,25.1072,VALID,351,VALID,0.984375,
2008-04-26, 00:24:04,VALID,1005.2,VALID,0,VALID,88.2433,VALID,0,VALID,25.1072,VALID,1,VALID,0.921094,
2008-04-26, 00:25:04,VALID,1005.16,VALID,0,VALID,88.2204,VALID,0,VALID,25.1286,VALID,346,VALID,0.712109,
2008-04-26, 00:26:04,VALID,1005.14,VALID,0,VALID,88.2204,VALID,0,VALID,25.0877,VALID,355,VALID,1.21328,
2008-04-26, 00:27:04,VALID,1005.14,VALID,0,VALID,88.4111,VALID,0,VALID,25.1091,VALID,344,VALID,0.722656,
2008-04-26, 00:28:04,VALID,1005.09,VALID,0,VALID,88.5484,VALID,0,VALID,25.0877,VALID,351,VALID,0.650781,
2008-04-26, 00:29:04,VALID,1005.1,VALID,0,VALID,88.7391,VALID,0,VALID,25.0896,VALID,1,VALID,0.543359,
2008-04-26, 00:30:04,VALID,1005.06,VALID,0,VALID,88.7925,VALID,0,VALID,25.0682,VALID,345,VALID,0.839453,
2008-04-26, 00:31:04,VALID,1005.05,VALID,0,VALID,88.8688,VALID,0,VALID,25.0682,VALID,4,VALID,0.784766,
2008-04-26, 00:32:04,VALID,1005.01,VALID,0,VALID,88.8765,VALID,0,VALID,25.0682,VALID,350,VALID,0.610937,
2008-04-26, 00:33:04,VALID,1005.01,VALID,0,VALID,88.7544,VALID,0,VALID,25.0682,VALID,360,VALID,1.03086,
2008-04-26, 00:34:04,VALID,1005.01,VALID,0,VALID,88.762,VALID,0,VALID,25.0877,VALID,350,VALID,0.891406,
2008-04-26, 00:35:04,VALID,1004.96,VALID,0,VALID,88.8688,VALID,0,VALID,25.0877,VALID,356,VALID,0.96875,
2008-04-26, 00:36:04,VALID,1004.93,VALID,0,VALID,88.8307,VALID,0,VALID,25.1267,VALID,355,VALID,0.880469,
2008-04-26, 00:37:04,VALID,1004.9,VALID,0,VALID,88.6323,VALID,0,VALID,25.187,VALID,346,VALID,1.0418,
2008-04-26, 00:38:04,VALID,1004.92,VALID,0,VALID,88.6171,VALID,0,VALID,25.2065,VALID,338,VALID,0.432422,
2008-04-26, 00:39:04,VALID,1004.87,VALID,0,VALID,88.5713,VALID,0,VALID,25.2046,VALID,336,VALID,0.646094,
2008-04-26, 00:40:04,VALID,1004.86,VALID,0,VALID,88.5484,VALID,0,VALID,25.2046,VALID,3,VALID,0.801172,
2008-04-26, 00:41:04,VALID,1004.84,VALID,0,VALID,88.5637,VALID,0,VALID,25.224,VALID,303,VALID,0.326953,
2008-04-26, 00:42:04,VALID,1004.81,VALID,0,VALID,88.5026,VALID,0,VALID,25.224,VALID,344,VALID,0.826563,
2008-04-26, 00:43:04,VALID,1004.8,VALID,0,VALID,88.5103,VALID,0,VALID,25.224,VALID,349,VALID,1.24609,
2008-04-26, 00:44:04,VALID,1004.77,VALID,0,VALID,88.4798,VALID,0,VALID,25.2435,VALID,325,VALID,0.569922,
2008-04-26, 00:45:04,VALID,1004.75,VALID,0,VALID,88.5408,VALID,0,VALID,25.2435,VALID,352,VALID,1.16328,
2008-04-26, 00:46:04,VALID,1004.74,VALID,0,VALID,88.4645,VALID,0,VALID,25.2844,VALID,327,VALID,0.276953,
2008-04-26, 00:47:04,VALID,1004.71,VALID,0,VALID,88.4035,VALID,0,VALID,25.2844,VALID,3,VALID,0.550781,
2008-04-26, 00:48:04,VALID,1004.68,VALID,0,VALID,88.4492,VALID,0,VALID,25.2825,VALID,360,VALID,0.730859,
2008-04-26, 00:49:04,VALID,1004.63,VALID,0,VALID,88.4798,VALID,0,VALID,25.263,VALID,335,VALID,0.586328,
2008-04-26, 00:50:04,VALID,1004.61,VALID,0,VALID,88.495,VALID,0,VALID,25.2435,VALID,332,VALID,0.482422,
2008-04-26, 00:51:04,VALID,1004.61,VALID,0,VALID,88.6094,VALID,0,VALID,25.2435,VALID,338,VALID,0.464063,
2008-04-26, 00:52:04,VALID,1004.57,VALID,0,VALID,88.5789,VALID,0,VALID,25.2454,VALID,285,VALID,0.457422,
2008-04-26, 00:53:04,VALID,1004.58,VALID,0,VALID,88.5942,VALID,0,VALID,25.226,VALID,350,VALID,0.464453,
2008-04-26, 00:54:04,VALID,1004.58,VALID,0,VALID,88.6857,VALID,0,VALID,25.2065,VALID,298,VALID,0.191797,
2008-04-26, 00:55:04,VALID,1004.54,VALID,0,VALID,88.6934,VALID,0,VALID,25.2065,VALID,307,VALID,0.252734,
2008-04-26, 00:56:04,VALID,1004.54,VALID,0,VALID,88.7391,VALID,0,VALID,25.187,VALID,349,VALID,0.779688,
2008-04-26, 00:57:04,VALID,1004.55,VALID,0,VALID,88.8154,VALID,0,VALID,25.1675,VALID,347,VALID,0.592969,
2008-04-26, 00:58:04,VALID,1004.55,VALID,0,VALID,88.8993,VALID,0,VALID,25.148,VALID,346,VALID,0.539844,
2008-04-26, 00:59:04,VALID,1004.56,VALID,0,VALID,88.9604,VALID,0,VALID,25.1286,VALID,347,VALID,0.367969,
2008-04-26, 01:00:04,VALID,1004.6,VALID,0,VALID,89.1511,VALID,0,VALID,25.0896,VALID,347,VALID,0.494922,
2008-04-26, 01:01:04,VALID,1004.58,VALID,0,VALID,89.3418,VALID,0,VALID,25.0488,VALID,339,VALID,0.633594,
2008-04-26, 01:02:04,VALID,1004.6,VALID,0,VALID,89.5783,VALID,0,VALID,25.0293,VALID,343,VALID,0.35,
2008-04-26, 01:03:04,VALID,1004.57,VALID,0,VALID,89.6775,VALID,0,VALID,24.9904,VALID,343,VALID,0.121875,
2008-04-26, 01:04:04,VALID,1004.58,VALID,0,VALID,89.8224,VALID,0,VALID,24.9904,VALID,343,VALID,0.121875,
2008-04-26, 01:05:04,VALID,1004.6,VALID,0,VALID,89.8377,VALID,0,VALID,24.9728,VALID,343,VALID,0,
2008-04-26, 01:06:04,VALID,1004.58,VALID,0,VALID,89.975,VALID,0,VALID,24.9319,VALID,343,VALID,0.000390625,
2008-04-26, 01:07:04,VALID,1004.57,VALID,0,VALID,90.0894,VALID,0,VALID,24.9319,VALID,343,VALID,0.108984,
2008-04-26, 01:08:04,VALID,1004.54,VALID,0,VALID,90.1047,VALID,0,VALID,24.9125,VALID,343,VALID,0.025,
2008-04-26, 01:09:04,VALID,1004.52,VALID,0,VALID,90.242,VALID,0,VALID,24.893,VALID,307,VALID,0.382813,
2008-04-26, 01:10:04,VALID,1004.52,VALID,0,VALID,90.1734,VALID,0,VALID,24.9143,VALID,308,VALID,0.135156,
2008-04-26, 01:11:04,VALID,1004.5,VALID,0,VALID,90.2878,VALID,0,VALID,24.893,VALID,344,VALID,0.437109,
2008-04-26, 01:12:04,VALID,1004.48,VALID,0,VALID,90.2039,VALID,0,VALID,24.9125,VALID,287,VALID,0.568359,
2008-04-26, 01:13:04,VALID,1004.46,VALID,0,VALID,90.0894,VALID,0,VALID,24.9338,VALID,299,VALID,0.736719,
2008-04-26, 01:14:04,VALID,1004.46,VALID,0,VALID,90.0437,VALID,0,VALID,24.9533,VALID,281,VALID,0.178516,
2008-04-26, 01:15:04,VALID,1004.5,VALID,0,VALID,89.9216,VALID,0,VALID,24.9514,VALID,280,VALID,0.271484,
2008-04-26, 01:16:04,VALID,1004.51,VALID,0,VALID,89.8224,VALID,0,VALID,24.9319,VALID,277,VALID,0.213281,
2008-04-26, 01:17:04,VALID,1004.49,VALID,0,VALID,89.8377,VALID,0,VALID,24.9125,VALID,277,VALID,0.0128906,
2008-04-26, 01:18:04,VALID,1004.49,VALID,0,VALID,89.8377,VALID,0,VALID,24.893,VALID,276,VALID,0.127344,
2008-04-26, 01:19:04,VALID,1004.49,VALID,0,VALID,89.9064,VALID,0,VALID,24.854,VALID,276,VALID,0.390625,
2008-04-26, 01:20:04,VALID,1004.49,VALID,0,VALID,90.0513,VALID,0,VALID,24.8346,VALID,275,VALID,0.0195313,
2008-04-26, 01:21:04,VALID,1004.46,VALID,0,VALID,90.1429,VALID,0,VALID,24.7956,VALID,275,VALID,0,
2008-04-26, 01:22:04,VALID,1004.45,VALID,0,VALID,90.1886,VALID,0,VALID,24.7586,VALID,275,VALID,0.180859,
2008-04-26, 01:23:04,VALID,1004.44,VALID,0,VALID,90.3031,VALID,0,VALID,24.7177,VALID,273,VALID,0.498437,
2008-04-26, 01:24:04,VALID,1004.46,VALID,0,VALID,90.387,VALID,0,VALID,24.6593,VALID,214,VALID,0.652344,
2008-04-26, 01:25:04,VALID,1004.45,VALID,0,VALID,90.5396,VALID,0,VALID,24.6204,VALID,291,VALID,0.650781,
2008-04-26, 01:26:04,VALID,1004.45,VALID,0,VALID,90.5624,VALID,0,VALID,24.6009,VALID,285,VALID,1.45547,
2008-04-26, 01:27:04,VALID,1004.46,VALID,0,VALID,90.5777,VALID,0,VALID,24.6009,VALID,359,VALID,0.619531,
2008-04-26, 01:28:04,VALID,1004.45,VALID,0,VALID,90.593,VALID,0,VALID,24.5814,VALID,347,VALID,0.344531,
2008-04-26, 01:29:04,VALID,1004.47,VALID,0,VALID,90.6082,VALID,0,VALID,24.6028,VALID,329,VALID,0.232422,
2008-04-26, 01:30:04,VALID,1004.44,VALID,0,VALID,90.6845,VALID,0,VALID,24.5814,VALID,345,VALID,0.3375,
2008-04-26, 01:31:04,VALID,1004.49,VALID,0,VALID,90.6998,VALID,0,VALID,24.5814,VALID,3,VALID,0.583594,
2008-04-26, 01:32:04,VALID,1004.51,VALID,0,VALID,90.7303,VALID,0,VALID,24.562,VALID,4,VALID,0.344141,
2008-04-26, 01:33:04,VALID,1004.49,VALID,0,VALID,90.7684,VALID,0,VALID,24.5425,VALID,4,VALID,0,
2008-04-26, 01:34:04,VALID,1004.52,VALID,0,VALID,90.8295,VALID,0,VALID,24.523,VALID,358,VALID,0.229687,
2008-04-26, 01:35:04,VALID,1004.52,VALID,0,VALID,90.921,VALID,0,VALID,24.5249,VALID,356,VALID,0.278125,
2008-04-26, 01:36:04,VALID,1004.49,VALID,0,VALID,90.9897,VALID,0,VALID,24.4841,VALID,355,VALID,0.323047,
2008-04-26, 01:37:04,VALID,1004.5,VALID,0,VALID,91.0812,VALID,0,VALID,24.4841,VALID,355,VALID,0.105078,
2008-04-26, 01:38:04,VALID,1004.48,VALID,0,VALID,91.2185,VALID,0,VALID,24.4646,VALID,301,VALID,0.744141,
2008-04-26, 01:39:04,VALID,1004.46,VALID,0,VALID,91.1499,VALID,0,VALID,24.4841,VALID,319,VALID,0.333594,
2008-04-26, 01:40:04,VALID,1004.45,VALID,0,VALID,91.1651,VALID,0,VALID,24.5054,VALID,319,VALID,0.238672,
2008-04-26, 01:41:04,VALID,1004.42,VALID,0,VALID,91.249,VALID,0,VALID,24.5054,VALID,342,VALID,0.482031,
2008-04-26, 01:42:04,VALID,1004.44,VALID,0,VALID,91.2948,VALID,0,VALID,24.4646,VALID,357,VALID,0.760547,
2008-04-26, 01:43:04,VALID,1004.41,VALID,0,VALID,91.3177,VALID,0,VALID,24.4646,VALID,3,VALID,1.07305,
2008-04-26, 01:44:04,VALID,1004.44,VALID,0,VALID,91.3406,VALID,0,VALID,24.4665,VALID,360,VALID,0.750391,
2008-04-26, 01:45:04,VALID,1004.39,VALID,0,VALID,91.4092,VALID,0,VALID,24.4062,VALID,1,VALID,0.826172,
2008-04-26, 01:46:04,VALID,1004.4,VALID,0,VALID,91.4703,VALID,0,VALID,24.3673,VALID,6,VALID,0.655859,
2008-04-26, 01:47:04,VALID,1004.4,VALID,0,VALID,91.3253,VALID,0,VALID,24.2894,VALID,7,VALID,0.602734,
2008-04-26, 01:48:04,VALID,1004.35,VALID,0,VALID,91.6839,VALID,0,VALID,24.231,VALID,13,VALID,0.610156,
2008-04-26, 01:49:04,VALID,1004.34,VALID,0,VALID,91.867,VALID,0,VALID,24.1726,VALID,15,VALID,0.301562,
2008-04-26, 01:50:04,VALID,1004.34,VALID,0,VALID,92.195,VALID,0,VALID,24.1142,VALID,16,VALID,0.360547,
2008-04-26, 01:51:04,VALID,1004.29,VALID,0,VALID,92.4544,VALID,0,VALID,24.0947,VALID,22,VALID,0.364453,
2008-04-26, 01:52:04,VALID,1004.3,VALID,0,VALID,92.813,VALID,0,VALID,24.0752,VALID,27,VALID,0.676953,
2008-04-26, 01:53:04,VALID,1004.27,VALID,0,VALID,92.7977,VALID,0,VALID,24.0965,VALID,27,VALID,0.339453,
2008-04-26, 01:54:04,VALID,1004.25,VALID,0,VALID,93.2631,VALID,0,VALID,24.0557,VALID,356,VALID,0.625,
2008-04-26, 01:55:04,VALID,1004.22,VALID,0,VALID,93.5148,VALID,0,VALID,24.1336,VALID,357,VALID,0.807813,
2008-04-26, 01:56:04,VALID,1004.21,VALID,0,VALID,93.4385,VALID,0,VALID,24.2328,VALID,356,VALID,1.12422,
2008-04-26, 01:57:04,VALID,1004.22,VALID,0,VALID,93.2325,VALID,0,VALID,24.2894,VALID,348,VALID,0.688672,
2008-04-26, 01:58:04,VALID,1004.2,VALID,0,VALID,93.0113,VALID,0,VALID,24.3867,VALID,347,VALID,0.920703,
2008-04-26, 01:59:04,VALID,1004.15,VALID,0,VALID,92.7519,VALID,0,VALID,24.4646,VALID,360,VALID,0.473828,
2008-04-26, 02:00:04,VALID,1004.18,VALID,0,VALID,92.5841,VALID,0,VALID,24.5425,VALID,346,VALID,0.983984,
2008-04-26, 02:01:04,VALID,1004.15,VALID,0,VALID,92.2866,VALID,0,VALID,24.6398,VALID,316,VALID,0.950781,
2008-04-26, 02:02:04,VALID,1004.16,VALID,0,VALID,92.0653,VALID,0,VALID,24.7177,VALID,338,VALID,0.884766,
2008-04-26, 02:03:04,VALID,1004.12,VALID,0,VALID,91.722,VALID,0,VALID,24.817,VALID,358,VALID,1.12852,
2008-04-26, 02:04:04,VALID,1004.11,VALID,0,VALID,91.3711,VALID,0,VALID,24.8735,VALID,353,VALID,1.03242,
2008-04-26, 02:05:04,VALID,1004.09,VALID,0,VALID,91.0965,VALID,0,VALID,24.9728,VALID,343,VALID,0.757031,
2008-04-26, 02:06:04,VALID,1004.08,VALID,0,VALID,90.6998,VALID,0,VALID,25.0117,VALID,15,VALID,1.225,
2008-04-26, 02:07:04,VALID,1004.06,VALID,0,VALID,90.4404,VALID,0,VALID,25.0488,VALID,336,VALID,0.728125,
2008-04-26, 02:08:04,VALID,1004.04,VALID,0,VALID,90.2115,VALID,0,VALID,25.0896,VALID,347,VALID,0.782031,
2008-04-26, 02:09:04,VALID,1004.03,VALID,0,VALID,90.0894,VALID,0,VALID,25.0877,VALID,352,VALID,0.769531,
2008-04-26, 02:10:04,VALID,1004.02,VALID,0,VALID,90.0437,VALID,0,VALID,25.1072,VALID,338,VALID,1.56914,
2008-04-26, 02:11:04,VALID,1004,VALID,0,VALID,89.8606,VALID,0,VALID,25.1267,VALID,351,VALID,1,
2008-04-26, 02:12:04,VALID,1003.96,VALID,0,VALID,89.7614,VALID,0,VALID,25.148,VALID,347,VALID,1.19492,
2008-04-26, 02:13:04,VALID,1003.92,VALID,0,VALID,89.6165,VALID,0,VALID,25.1461,VALID,342,VALID,0.45625,
2008-04-26, 02:14:04,VALID,1003.9,VALID,0,VALID,89.5478,VALID,0,VALID,25.1461,VALID,293,VALID,0.588281,
2008-04-26, 02:15:04,VALID,1003.91,VALID,0,VALID,89.4715,VALID,0,VALID,25.1656,VALID,332,VALID,0.297656,
2008-04-26, 02:16:04,VALID,1003.89,VALID,0,VALID,89.441,VALID,0,VALID,25.1461,VALID,344,VALID,0.760938,
2008-04-26, 02:17:04,VALID,1003.88,VALID,0,VALID,89.4028,VALID,0,VALID,25.1461,VALID,348,VALID,0.997656,
2008-04-26, 02:18:04,VALID,1003.92,VALID,0,VALID,89.4639,VALID,0,VALID,25.1267,VALID,9,VALID,0.362109,
2008-04-26, 02:19:04,VALID,1003.88,VALID,0,VALID,89.5097,VALID,0,VALID,25.1072,VALID,357,VALID,1.27188,
2008-04-26, 02:20:04,VALID,1003.85,VALID,0,VALID,89.5936,VALID,0,VALID,25.1072,VALID,348,VALID,0.751953,
2008-04-26, 02:21:04,VALID,1003.86,VALID,0,VALID,89.647,VALID,0,VALID,25.0682,VALID,351,VALID,0.821094,
2008-04-26, 02:22:04,VALID,1003.84,VALID,0,VALID,89.7385,VALID,0,VALID,25.0488,VALID,341,VALID,0.739844,
2008-04-26, 02:23:04,VALID,1003.81,VALID,0,VALID,89.8682,VALID,0,VALID,25.0098,VALID,353,VALID,1.0793,
2008-04-26, 02:24:04,VALID,1003.78,VALID,0,VALID,89.8987,VALID,0,VALID,25.0079,VALID,347,VALID,0.985547,
2008-04-26, 02:25:04,VALID,1003.77,VALID,0,VALID,89.914,VALID,0,VALID,25.0293,VALID,348,VALID,0.738672,
2008-04-26, 02:26:04,VALID,1003.73,VALID,0,VALID,89.914,VALID,0,VALID,25.0293,VALID,328,VALID,0.68125,
2008-04-26, 02:27:04,VALID,1003.7,VALID,0,VALID,89.8682,VALID,0,VALID,25.0274,VALID,335,VALID,0.982422,
2008-04-26, 02:28:04,VALID,1003.69,VALID,0,VALID,89.9064,VALID,0,VALID,25.0293,VALID,355,VALID,1.43555,
2008-04-26, 02:29:04,VALID,1003.68,VALID,0,VALID,89.8758,VALID,0.100563,VALID,25.0274,VALID,346,VALID,0.848047,
2008-04-26, 02:30:04,VALID,1003.63,VALID,0,VALID,89.7996,VALID,0,VALID,25.0488,VALID,4,VALID,0.723437,
2008-04-26, 02:31:04,VALID,1003.59,VALID,0,VALID,89.8606,VALID,0,VALID,25.0274,VALID,6,VALID,0.305859,
2008-04-26, 02:32:04,VALID,1003.56,VALID,0,VALID,89.8911,VALID,0,VALID,25.0293,VALID,2,VALID,0.70625,
2008-04-26, 02:33:04,VALID,1003.58,VALID,0,VALID,89.9064,VALID,0,VALID,25.0312,VALID,313,VALID,0.498437,
2008-04-26, 02:34:04,VALID,1003.55,VALID,0,VALID,89.975,VALID,0,VALID,24.9885,VALID,356,VALID,0.426172,
2008-04-26, 02:35:04,VALID,1003.54,VALID,0,VALID,90.0437,VALID,0,VALID,24.9904,VALID,353,VALID,1.33242,
2008-04-26, 02:36:04,VALID,1003.57,VALID,0,VALID,89.9979,VALID,0,VALID,24.9904,VALID,3,VALID,0.566406,
2008-04-26, 02:37:04,VALID,1003.57,VALID,0,VALID,90.0437,VALID,0.100563,VALID,25.0098,VALID,357,VALID,1.01094,
2008-04-26, 02:38:04,VALID,1003.56,VALID,0,VALID,90.1505,VALID,0,VALID,24.969,VALID,353,VALID,1.5207,
2008-04-26, 02:39:04,VALID,1003.56,VALID,0,VALID,90.1352,VALID,0,VALID,24.9904,VALID,351,VALID,0.736719,
2008-04-26, 02:40:04,VALID,1003.55,VALID,0,VALID,90.1581,VALID,0,VALID,24.9904,VALID,350,VALID,1.20703,
2008-04-26, 02:41:04,VALID,1003.59,VALID,0,VALID,90.1734,VALID,0.100563,VALID,24.9495,VALID,348,VALID,0.754687,
2008-04-26, 02:42:04,VALID,1003.56,VALID,0,VALID,90.2573,VALID,0,VALID,24.9495,VALID,4,VALID,0.889063,
2008-04-26, 02:43:04,VALID,1003.59,VALID,0,VALID,90.2268,VALID,0,VALID,24.9904,VALID,339,VALID,0.675391,
2008-04-26, 02:44:04,VALID,1003.54,VALID,0,VALID,90.2115,VALID,0,VALID,24.9709,VALID,1,VALID,0.896484,
2008-04-26, 02:45:04,VALID,1003.57,VALID,0,VALID,90.242,VALID,0,VALID,24.9495,VALID,358,VALID,0.438281,
2008-04-26, 02:46:04,VALID,1003.57,VALID,0,VALID,90.2725,VALID,0,VALID,24.9709,VALID,337,VALID,0.290234,
2008-04-26, 02:47:04,VALID,1003.53,VALID,0,VALID,90.2191,VALID,0,VALID,24.9495,VALID,287,VALID,0.850781,
2008-04-26, 02:48:04,VALID,1003.56,VALID,0,VALID,90.1123,VALID,0.100563,VALID,24.9904,VALID,292,VALID,0.978516,
2008-04-26, 02:49:04,VALID,1003.52,VALID,0,VALID,90.0589,VALID,0.100563,VALID,24.9885,VALID,279,VALID,0.685156,
2008-04-26, 02:50:04,VALID,1003.51,VALID,0,VALID,89.9979,VALID,0,VALID,25.0507,VALID,19,VALID,0.473828,
2008-04-26, 02:51:04,VALID,1003.49,VALID,0,VALID,89.9292,VALID,0.100563,VALID,25.0293,VALID,302,VALID,0.564844,
2008-04-26, 02:52:04,VALID,1003.5,VALID,0,VALID,89.9369,VALID,0,VALID,25.0293,VALID,349,VALID,1.14531,
2008-04-26, 02:53:04,VALID,1003.47,VALID,0,VALID,89.9598,VALID,0,VALID,25.0098,VALID,355,VALID,0.822656,
2008-04-26, 02:54:04,VALID,1003.46,VALID,0,VALID,90.0894,VALID,0,VALID,24.9904,VALID,353,VALID,1.34102,
2008-04-26, 02:55:04,VALID,1003.46,VALID,0,VALID,90.12,VALID,0,VALID,24.9709,VALID,351,VALID,0.886719,
2008-04-26, 02:56:04,VALID,1003.44,VALID,0,VALID,90.242,VALID,0.100563,VALID,24.93,VALID,343,VALID,0.966016,
2008-04-26, 02:57:04,VALID,1003.46,VALID,0,VALID,90.3565,VALID,0,VALID,24.9125,VALID,349,VALID,0.724219,
2008-04-26, 02:58:04,VALID,1003.45,VALID,0,VALID,90.4862,VALID,0.100563,VALID,24.893,VALID,347,VALID,0.988281,
2008-04-26, 02:59:04,VALID,1003.45,VALID,0,VALID,90.6311,VALID,0,VALID,24.854,VALID,356,VALID,0.908594,
2008-04-26, 03:00:04,VALID,1003.45,VALID,0,VALID,90.6998,VALID,0.100563,VALID,24.8151,VALID,358,VALID,1.03672,
2008-04-26, 03:01:04,VALID,1003.45,VALID,0,VALID,90.8066,VALID,0,VALID,24.7761,VALID,350,VALID,1.01992,
2008-04-26, 03:02:04,VALID,1003.44,VALID,0,VALID,91.0125,VALID,0.100563,VALID,24.7761,VALID,354,VALID,1.03359,
2008-04-26, 03:03:04,VALID,1003.41,VALID,0,VALID,91.1346,VALID,0,VALID,24.7567,VALID,4,VALID,1.29492,
2008-04-26, 03:04:04,VALID,1003.4,VALID,0,VALID,91.2109,VALID,0,VALID,24.7372,VALID,1,VALID,0.813672,
2008-04-26, 03:05:04,VALID,1003.4,VALID,0,VALID,91.3558,VALID,0,VALID,24.7177,VALID,356,VALID,0.935938,
2008-04-26, 03:06:04,VALID,1003.39,VALID,0,VALID,91.4932,VALID,0,VALID,24.7177,VALID,335,VALID,0.964844,
2008-04-26, 03:07:04,VALID,1003.4,VALID,0,VALID,91.6,VALID,0,VALID,24.7177,VALID,356,VALID,1.39688,
2008-04-26, 03:08:04,VALID,1003.38,VALID,0,VALID,91.5161,VALID,0,VALID,24.7372,VALID,350,VALID,0.738281,
2008-04-26, 03:09:04,VALID,1003.37,VALID,0,VALID,91.5237,VALID,0,VALID,24.6964,VALID,352,VALID,0.680859,
2008-04-26, 03:10:04,VALID,1003.38,VALID,0,VALID,91.5237,VALID,0,VALID,24.7177,VALID,353,VALID,0.828906,
2008-04-26, 03:11:04,VALID,1003.35,VALID,0,VALID,91.5313,VALID,0,VALID,24.7177,VALID,353,VALID,0.723047,
2008-04-26, 03:12:04,VALID,1003.34,VALID,0,VALID,91.5161,VALID,0,VALID,24.7372,VALID,344,VALID,0.910937,
2008-04-26, 03:13:04,VALID,1003.33,VALID,0,VALID,91.4703,VALID,0,VALID,24.778,VALID,347,VALID,0.673047,
2008-04-26, 03:14:04,VALID,1003.32,VALID,0,VALID,91.4321,VALID,0,VALID,24.7372,VALID,340,VALID,0.628906,
2008-04-26, 03:15:04,VALID,1003.27,VALID,0,VALID,91.4626,VALID,0,VALID,24.7372,VALID,356,VALID,0.743359,
2008-04-26, 03:16:04,VALID,1003.29,VALID,0,VALID,91.5008,VALID,0,VALID,24.7567,VALID,348,VALID,0.191406,
2008-04-26, 03:17:04,VALID,1003.28,VALID,0,VALID,91.4474,VALID,0,VALID,24.7372,VALID,347,VALID,0.0875,
2008-04-26, 03:18:04,VALID,1003.23,VALID,0,VALID,91.4932,VALID,0,VALID,24.7372,VALID,260,VALID,0.246875,
2008-04-26, 03:19:04,VALID,1003.21,VALID,0,VALID,91.5847,VALID,0,VALID,24.7372,VALID,266,VALID,0.413672,
2008-04-26, 03:20:04,VALID,1003.22,VALID,0,VALID,91.5008,VALID,0,VALID,24.7372,VALID,267,VALID,0,
2008-04-26, 03:21:04,VALID,1003.18,VALID,0,VALID,91.5695,VALID,0,VALID,24.7177,VALID,267,VALID,0.130469,
2008-04-26, 03:22:04,VALID,1003.2,VALID,0,VALID,91.661,VALID,0.100563,VALID,24.7177,VALID,269,VALID,0.255469,
2008-04-26, 03:23:04,VALID,1003.2,VALID,0,VALID,91.5847,VALID,0,VALID,24.7177,VALID,273,VALID,0.245703,
2008-04-26, 03:24:04,VALID,1003.21,VALID,0,VALID,91.6076,VALID,0,VALID,24.7177,VALID,353,VALID,0.651953,
2008-04-26, 03:25:04,VALID,1003.19,VALID,0,VALID,91.7068,VALID,0,VALID,24.7372,VALID,334,VALID,0.521484,
2008-04-26, 03:26:04,VALID,1003.21,VALID,0,VALID,91.7297,VALID,0,VALID,24.7372,VALID,323,VALID,0.0640625,
2008-04-26, 03:27:04,VALID,1003.25,VALID,0,VALID,91.6991,VALID,0,VALID,24.7372,VALID,260,VALID,0.266797,
2008-04-26, 03:28:04,VALID,1003.28,VALID,0,VALID,91.5237,VALID,0,VALID,24.7372,VALID,244,VALID,0.570703,
2008-04-26, 03:29:04,VALID,1003.26,VALID,0,VALID,91.5847,VALID,0,VALID,24.6983,VALID,246,VALID,0.364453,
2008-04-26, 03:30:04,VALID,1003.26,VALID,0,VALID,91.7525,VALID,0,VALID,24.6593,VALID,277,VALID,0.448438,
2008-04-26, 03:31:04,VALID,1003.24,VALID,0,VALID,91.8136,VALID,0,VALID,24.6593,VALID,302,VALID,0.828516,
2008-04-26, 03:32:04,VALID,1003.22,VALID,0,VALID,91.8136,VALID,0,VALID,24.6593,VALID,298,VALID,0,
2008-04-26, 03:33:04,VALID,1003.2,VALID,0,VALID,91.8517,VALID,0,VALID,24.6398,VALID,316,VALID,0.136719,
2008-04-26, 03:34:04,VALID,1003.2,VALID,0,VALID,91.928,VALID,0,VALID,24.6185,VALID,357,VALID,0.276563,
2008-04-26, 03:35:04,VALID,1003.21,VALID,0,VALID,92.0348,VALID,0,VALID,24.6204,VALID,357,VALID,0.0601562,
2008-04-26, 03:36:04,VALID,1003.23,VALID,0,VALID,92.073,VALID,0,VALID,24.6222,VALID,357,VALID,0.227344,
2008-04-26, 03:37:04,VALID,1003.2,VALID,0,VALID,92.1264,VALID,0,VALID,24.5601,VALID,357,VALID,0.480078,
2008-04-26, 03:38:04,VALID,1003.18,VALID,0,VALID,92.2179,VALID,0,VALID,24.562,VALID,356,VALID,0.661719,
2008-04-26, 03:39:04,VALID,1003.18,VALID,0,VALID,92.3095,VALID,0,VALID,24.5017,VALID,356,VALID,0.780469,
2008-04-26, 03:40:04,VALID,1003.19,VALID,0,VALID,92.4544,VALID,0,VALID,24.4841,VALID,354,VALID,0.9375,
2008-04-26, 03:41:04,VALID,1003.15,VALID,0,VALID,92.668,VALID,0.100563,VALID,24.4646,VALID,1,VALID,0.906641,
2008-04-26, 03:42:04,VALID,1003.11,VALID,0,VALID,92.813,VALID,0.100563,VALID,24.4451,VALID,1,VALID,0.751953,
2008-04-26, 03:43:04,VALID,1003.15,VALID,0,VALID,93.0342,VALID,0,VALID,24.3849,VALID,1,VALID,0.666016,
2008-04-26, 03:44:04,VALID,1003.11,VALID,0,VALID,92.9884,VALID,0,VALID,24.3867,VALID,1,VALID,0.649609,